Flag for Cayman Islands Weather past 2 weeks in George Town, Cayman Islands

Now
73 °F

Mild.


Feels Like: 76 °F
Forecast: 77 / 79 °F
Wind: 16 mph from Northeast

Location: Cayo Largo Del Sur

Current Time: Mar 30, 2015 at 5:49:36 AM

Latest Report: Mar 30, 2015 at 5:05 AM


Visibility: N/A

Pressure: 30.09 "Hg

Humidity: 69%

Dew point: 63 °F

Location of George TownLocation

Historic Weather in George Town — Graph

°F

George Town temperature yesterday

Maximum temperature yesterday: 82 °F (at 12:52 PM)
Minimum temperature yesterday: 72 °F (at 2:05 AM)
Average temperature yesterday: 77 °F

Past Weeks' High & Low Weather Summary

 TemperatureHumidityPressure
High88 °F (Mar 25, 1:53 PM)89% (Mar 26, 5:05 AM)30.18 "Hg (Mar 26, 5:05 AM)
Low72 °F (Mar 19, 4:05 AM)35% (Mar 25, 1:53 PM)29.95 "Hg (Mar 18, 5:01 PM)
Average79 °F67%30.04 "Hg
* Reported Mar 15 4:05 AM — Mar 30 4:05 AM, George Town, Weather by CustomWeather, © 2015

Note: Actual official high and low records may vary slightly from our data, if they occured in-between our weather recording intervals... More about our weather records

Advertising

George Town weather history for previous 24 hours

 ConditionsComfort  
Time TempWeatherWind HumidityBarometerVisibility
4:05 AM
Mon, Mar 30
73 °FMild.17 mph69%30.09 "HgN/A
3:05 AM73 °FMild.17 mph69%30.09 "HgN/A
2:05 AM73 °FMild.21 mph65%30.12 "HgN/A
1:05 AM73 °FMild.23 mph65%30.15 "HgN/A
12:05 AM73 °FMild.23 mph65%30.15 "HgN/A
11:05 PM
Sun, Mar 29
73 °FMild.23 mph65%30.15 "HgN/A
9:51 PM73 °FPassing clouds.22 mph65%30.18 "Hg6 mi
8:50 PM75 °FPassing clouds.23 mph57%30.15 "HgN/A
8:05 PM75 °FMild.23 mph61%30.15 "HgN/A
7:05 PM79 °FWarm.22 mph51%30.12 "HgN/A
5:51 PM81 °FPartly sunny.17 mph45%30.12 "HgN/A
4:51 PM82 °FPartly sunny.9 mph48%30.09 "HgN/A
3:52 PM82 °FPassing clouds.10 mph48%30.12 "HgN/A
2:52 PM82 °FPassing clouds.12 mph45%30.12 "HgN/A
1:51 PM82 °FScattered clouds.14 mph45%30.15 "HgN/A
12:52 PM82 °FPassing clouds.15 mph45%30.18 "HgN/A
11:50 AM81 °FPassing clouds.16 mph51%30.18 "HgN/A
10:50 AM77 °FPassing clouds.18 mph57%30.18 "HgN/A
9:51 AM77 °FPassing clouds.20 mph57%30.18 "HgN/A
8:51 AM75 °FScattered clouds.20 mph61%30.18 "HgN/A
7:52 AM75 °FPartly sunny.18 mph57%30.15 "HgN/A
6:52 AM73 °FPassing clouds.21 mph57%30.15 "Hg6 mi
5:51 AM73 °FPassing clouds.21 mph61%30.12 "Hg6 mi
5:05 AM73 °FMild.21 mph57%30.12 "HgN/A
Weather by CustomWeather, © 2015

See weather overviewHow to use our weather pages